EWG7HW EDDH-LGKR

Flight info

Callsign EWG7HW
Flight time 2h 23m
Altitude 37000
Route AMLUH2G AMLUH M852 DENIX DCT ZUCKA DCT ARMUT DCT LAMSI DCT PETOV DCT ZAG DCT SOLGU DCT BIGLO DCT RODON DCT LIMJA DCT PITAS
Aircraft A319/M-SDE3FGHIRWY/LB1

Departure

Time 2026-04-21 08:54
Airport Hamburg Helmut Schmidt Airport (EDDH)

Arrival

Time 2026-04-21 11:17
Airport Corfu Ioannis Kapodistrias International Airport (LGKR)
Time Latitude Longitude Altitude Speed Heading
2026-04-21 08:27 53.63206 10.00366 49 ft 0 kts 86°
2026-04-21 08:48 53.63205 10.00329 48 ft 4 kts 86°
2026-04-21 08:48 53.63203 10.00293 48 ft 4 kts 87°
2026-04-21 08:48 53.63208 10.00253 48 ft 4 kts 150°
2026-04-21 08:49 53.63231 10.00245 48 ft 3 kts 176°
2026-04-21 08:49 53.63233 10.00245 48 ft 0 kts 176°
2026-04-21 08:51 53.63226 10.00245 43 ft 3 kts 176°
2026-04-21 08:52 53.63195 10.00249 44 ft 7 kts 176°
2026-04-21 08:52 53.63133 10.00257 48 ft 11 kts 176°
2026-04-21 08:52 53.63049 10.00246 46 ft 14 kts 207°
2026-04-21 08:52 53.62963 10.00151 46 ft 16 kts 213°
2026-04-21 08:53 53.62869 10.00032 48 ft 18 kts 232°
2026-04-21 08:53 53.62810 9.99839 45 ft 13 kts 247°
2026-04-21 08:53 53.62840 9.99767 45 ft 0 kts 334°
2026-04-21 08:53 53.62846 9.99762 45 ft 6 kts 334°
2026-04-21 08:54 53.63050 9.99588 46 ft 64 kts 333°
2026-04-21 08:54 53.63627 9.99089 48 ft 121 kts 333°
2026-04-21 08:54 53.64525 9.98320 170 ft 158 kts 337°
2026-04-21 08:54 53.65511 9.97475 907 ft 160 kts 338°
2026-04-21 08:55 53.66529 9.96608 1605 ft 172 kts 338°
2026-04-21 08:55 53.67659 9.95671 2135 ft 190 kts 339°
2026-04-21 08:55 53.68938 9.94816 2787 ft 204 kts 353°
2026-04-21 08:55 53.70374 9.94743 3438 ft 211 kts
2026-04-21 08:56 53.71840 9.94861 4408 ft 211 kts 15°
2026-04-21 08:56 53.73083 9.96033 5288 ft 207 kts 51°
2026-04-21 08:56 53.73636 9.98253 6156 ft 209 kts 78°
2026-04-21 08:56 53.73948 10.00629 7142 ft 207 kts 77°
2026-04-21 08:57 53.74041 10.03102 7891 ft 216 kts 95°
2026-04-21 08:57 53.73580 10.05592 8578 ft 236 kts 114°
2026-04-21 08:57 53.72743 10.08094 9267 ft 252 kts 117°
2026-04-21 08:57 53.71830 10.10732 9962 ft 268 kts 117°
2026-04-21 08:58 53.70871 10.13493 10681 ft 280 kts 117°
2026-04-21 08:58 53.69796 10.16392 11048 ft 303 kts 123°
2026-04-21 08:58 53.68340 10.19090 11622 ft 319 kts 135°
2026-04-21 08:58 53.66473 10.21224 12370 ft 331 kts 149°
2026-04-21 08:59 53.64279 10.22532 13192 ft 339 kts 161°
2026-04-21 08:59 53.61989 10.23529 14025 ft 342 kts 160°
2026-04-21 08:59 53.59676 10.24563 14751 ft 345 kts 160°
2026-04-21 08:59 53.57341 10.25629 15445 ft 349 kts 160°
2026-04-21 09:00 53.54988 10.26710 16167 ft 352 kts 160°
2026-04-21 09:00 53.52611 10.27807 16876 ft 356 kts 159°
2026-04-21 09:00 53.50209 10.28914 17577 ft 359 kts 159°
2026-04-21 09:00 53.47817 10.30012 18273 ft 363 kts 160°
2026-04-21 09:01 53.45369 10.31133 18930 ft 366 kts 159°
2026-04-21 09:01 53.42897 10.32257 19548 ft 369 kts 159°
2026-04-21 09:01 53.40401 10.33386 20172 ft 373 kts 159°
2026-04-21 09:01 53.37889 10.34517 20800 ft 376 kts 159°
2026-04-21 09:02 53.35353 10.35657 21424 ft 379 kts 159°
2026-04-21 09:02 53.32797 10.36805 22037 ft 382 kts 159°
2026-04-21 09:02 53.30221 10.37959 22646 ft 385 kts 159°
2026-04-21 09:03 53.25003 10.40296 23831 ft 391 kts 159°
2026-04-21 09:03 53.22368 10.41474 24328 ft 394 kts 159°
2026-04-21 09:03 53.19708 10.42658 24813 ft 397 kts 159°
2026-04-21 09:03 53.17066 10.43828 25284 ft 399 kts 159°
2026-04-21 09:04 53.14373 10.45021 25768 ft 402 kts 159°
2026-04-21 09:04 53.11613 10.46189 26245 ft 406 kts 161°
2026-04-21 09:04 53.08841 10.47178 26715 ft 410 kts 163°
2026-04-21 09:04 53.06021 10.48052 27174 ft 414 kts 164°
2026-04-21 09:05 53.03176 10.48869 27628 ft 417 kts 165°
2026-04-21 09:05 53.00305 10.49680 28080 ft 420 kts 165°
2026-04-21 09:05 52.97456 10.50502 28519 ft 422 kts 164°
2026-04-21 09:05 52.94547 10.51370 28964 ft 425 kts 164°
2026-04-21 09:06 52.91634 10.52267 29395 ft 428 kts 164°
2026-04-21 09:06 52.88697 10.53187 29820 ft 431 kts 164°
2026-04-21 09:06 52.85743 10.54114 30236 ft 434 kts 164°
2026-04-21 09:06 52.82768 10.55040 30588 ft 437 kts 164°
2026-04-21 09:07 52.79770 10.55965 30901 ft 440 kts 164°
2026-04-21 09:07 52.76750 10.56896 31199 ft 443 kts 165°
2026-04-21 09:07 52.73704 10.57835 31488 ft 446 kts 165°
2026-04-21 09:07 52.70645 10.58773 31763 ft 449 kts 165°
2026-04-21 09:08 52.67563 10.59715 32058 ft 452 kts 165°
2026-04-21 09:08 52.64465 10.60658 32455 ft 452 kts 166°
2026-04-21 09:08 52.61371 10.61600 32843 ft 452 kts 166°
2026-04-21 09:08 52.58274 10.62543 33230 ft 452 kts 166°
2026-04-21 09:09 52.55177 10.63488 33613 ft 453 kts 166°
2026-04-21 09:09 52.52074 10.64431 34008 ft 453 kts 167°
2026-04-21 09:09 52.48969 10.65372 34389 ft 454 kts 167°
2026-04-21 09:09 52.45863 10.66315 34709 ft 454 kts 167°
2026-04-21 09:10 52.42747 10.67259 35005 ft 455 kts 167°
2026-04-21 09:10 52.39632 10.68201 35298 ft 456 kts 167°
2026-04-21 09:10 52.37569 10.68825 35493 ft 456 kts 167°
2026-04-21 09:10 52.34437 10.69769 35775 ft 457 kts 168°
2026-04-21 09:11 52.31305 10.70706 36049 ft 458 kts 168°
2026-04-21 09:11 52.28166 10.71644 36324 ft 459 kts 168°
2026-04-21 09:11 52.25020 10.72586 36597 ft 460 kts 168°
2026-04-21 09:11 52.21869 10.73533 36855 ft 460 kts 168°
2026-04-21 09:12 52.18717 10.74481 37110 ft 461 kts 168°
2026-04-21 09:12 52.15553 10.75428 37283 ft 463 kts 168°
2026-04-21 09:12 52.09221 10.77309 37312 ft 462 kts 168°
2026-04-21 09:13 52.02890 10.79200 37310 ft 462 kts 169°
2026-04-21 09:13 51.96557 10.81076 37300 ft 463 kts 169°
2026-04-21 09:14 51.90224 10.82946 37294 ft 463 kts 169°
2026-04-21 09:14 51.83893 10.84818 37296 ft 463 kts 169°
2026-04-21 09:15 51.77553 10.86688 37290 ft 463 kts 169°
2026-04-21 09:15 51.71206 10.88547 37289 ft 463 kts 169°
2026-04-21 09:16 51.65042 10.91435 37285 ft 462 kts 153°
2026-04-21 09:16 51.59239 10.95890 37274 ft 462 kts 153°
2026-04-21 09:17 51.53454 11.00290 37276 ft 463 kts 154°
2026-04-21 09:17 51.47633 11.04707 37268 ft 463 kts 154°
2026-04-21 09:18 51.41804 11.09120 37276 ft 463 kts 154°
2026-04-21 09:18 51.35976 11.13518 37274 ft 463 kts 154°
2026-04-21 09:19 51.30148 11.17904 37271 ft 463 kts 154°
2026-04-21 09:19 51.24307 11.22299 37268 ft 463 kts 154°
2026-04-21 09:20 51.18470 11.26679 37274 ft 463 kts 154°
2026-04-21 09:20 51.12624 11.31034 37273 ft 464 kts 154°
2026-04-21 09:21 51.06777 11.35377 37274 ft 464 kts 154°
2026-04-21 09:21 51.00936 11.39720 37268 ft 463 kts 154°
2026-04-21 09:22 50.95092 11.44057 37267 ft 464 kts 155°
2026-04-21 09:22 50.89282 11.48341 37261 ft 464 kts 155°
2026-04-21 09:23 50.83427 11.52650 37251 ft 463 kts 155°
2026-04-21 09:23 50.77571 11.56950 37246 ft 464 kts 155°
2026-04-21 09:24 50.71720 11.61239 37239 ft 464 kts 155°
2026-04-21 09:24 50.65859 11.65523 37238 ft 465 kts 155°
2026-04-21 09:25 50.59984 11.69807 37227 ft 465 kts 155°
2026-04-21 09:25 50.54110 11.74079 37210 ft 466 kts 155°
2026-04-21 09:26 50.48219 11.78345 37196 ft 466 kts 155°
2026-04-21 09:26 50.42322 11.82598 37187 ft 467 kts 155°
2026-04-21 09:27 50.36406 11.86862 37181 ft 467 kts 155°
2026-04-21 09:27 50.30498 11.91114 37182 ft 468 kts 155°
2026-04-21 09:28 50.24575 11.95351 37184 ft 468 kts 155°
2026-04-21 09:28 50.18652 11.99584 37188 ft 468 kts 156°
2026-04-21 09:29 50.12763 12.03778 37191 ft 468 kts 156°
2026-04-21 09:29 50.06833 12.07986 37193 ft 468 kts 156°
2026-04-21 09:30 50.00911 12.12182 37194 ft 468 kts 156°
2026-04-21 09:30 49.94985 12.16359 37184 ft 468 kts 156°
2026-04-21 09:31 49.89057 12.20538 37181 ft 468 kts 156°
2026-04-21 09:31 49.83138 12.24708 37177 ft 468 kts 156°
2026-04-21 09:32 49.77208 12.28876 37178 ft 468 kts 156°
2026-04-21 09:32 49.71416 12.33441 37176 ft 468 kts 146°
2026-04-21 09:33 49.66252 12.39579 37178 ft 469 kts 142°
2026-04-21 09:33 49.61121 12.45782 37181 ft 469 kts 142°
2026-04-21 09:34 49.55976 12.51975 37180 ft 469 kts 142°
2026-04-21 09:34 49.50825 12.58148 37178 ft 469 kts 142°
2026-04-21 09:35 49.45670 12.64308 37176 ft 469 kts 142°
2026-04-21 09:35 49.40515 12.70471 37173 ft 469 kts 142°
2026-04-21 09:36 49.35358 12.76622 37165 ft 470 kts 143°
2026-04-21 09:36 49.30190 12.82758 37164 ft 470 kts 143°
2026-04-21 09:37 49.25018 12.88877 37159 ft 470 kts 143°
2026-04-21 09:37 49.19874 12.94932 37157 ft 470 kts 143°
2026-04-21 09:38 49.14689 13.01040 37146 ft 470 kts 143°
2026-04-21 09:38 49.09506 13.07128 37148 ft 471 kts 143°
2026-04-21 09:39 49.04304 13.13210 37150 ft 471 kts 143°
2026-04-21 09:39 48.99109 13.19284 37147 ft 471 kts 143°
2026-04-21 09:40 48.93899 13.25356 37150 ft 472 kts 143°
2026-04-21 09:40 48.88674 13.31420 37143 ft 472 kts 143°
2026-04-21 09:41 48.83452 13.37477 37148 ft 472 kts 143°
2026-04-21 09:41 48.78219 13.43512 37145 ft 473 kts 144°
2026-04-21 09:42 48.72981 13.49546 37146 ft 473 kts 144°
2026-04-21 09:42 48.67736 13.55572 37143 ft 473 kts 144°
2026-04-21 09:43 48.62460 13.61544 37141 ft 473 kts 145°
2026-04-21 09:43 48.57093 13.67313 37140 ft 473 kts 146°
2026-04-21 09:44 48.51694 13.73015 37142 ft 474 kts 146°
2026-04-21 09:44 48.46311 13.78745 37140 ft 474 kts 146°
2026-04-21 09:45 48.40933 13.84500 37145 ft 474 kts 146°
2026-04-21 09:45 48.35550 13.90248 37149 ft 474 kts 146°
2026-04-21 09:46 48.30166 13.95980 37153 ft 475 kts 146°
2026-04-21 09:46 48.24765 14.01699 37156 ft 475 kts 146°
2026-04-21 09:47 48.19361 14.07403 37156 ft 475 kts 146°
2026-04-21 09:47 48.13957 14.13096 37154 ft 475 kts 146°
2026-04-21 09:48 48.08574 14.18748 37152 ft 475 kts 146°
2026-04-21 09:48 48.03159 14.24432 37145 ft 476 kts 146°
2026-04-21 09:49 47.97732 14.30112 37139 ft 476 kts 147°
2026-04-21 09:49 47.92300 14.35771 37131 ft 476 kts 147°
2026-04-21 09:50 47.88663 14.39547 37129 ft 477 kts 147°
2026-04-21 09:50 47.81418 14.47084 37121 ft 477 kts 147°
2026-04-21 09:51 47.75964 14.52722 37115 ft 478 kts 147°
2026-04-21 09:51 47.70502 14.58355 37111 ft 478 kts 147°
2026-04-21 09:52 47.65032 14.63996 37104 ft 479 kts 147°
2026-04-21 09:52 47.59552 14.69633 37094 ft 480 kts 147°
2026-04-21 09:53 47.54057 14.75253 37086 ft 480 kts 147°
2026-04-21 09:53 47.48561 14.80858 37076 ft 480 kts 147°
2026-04-21 09:54 47.43075 14.86449 37058 ft 479 kts 147°
2026-04-21 09:54 47.37577 14.92039 37052 ft 480 kts 147°
2026-04-21 09:55 47.32991 14.96681 37049 ft 480 kts 147°
2026-04-21 09:55 47.27482 15.02249 37045 ft 480 kts 147°
2026-04-21 09:56 47.21966 15.07811 37035 ft 480 kts 147°
2026-04-21 09:56 47.16461 15.13362 37039 ft 480 kts 147°
2026-04-21 09:57 47.10940 15.18908 37048 ft 481 kts 147°
2026-04-21 09:57 47.05411 15.24430 37044 ft 481 kts 147°
2026-04-21 09:58 46.99886 15.29950 37042 ft 481 kts 148°
2026-04-21 09:58 46.94353 15.35470 37043 ft 481 kts 148°
2026-04-21 09:59 46.88805 15.40991 37043 ft 482 kts 148°
2026-04-21 09:59 46.83259 15.46486 37045 ft 482 kts 148°
2026-04-21 10:00 46.77704 15.51970 37056 ft 482 kts 148°
2026-04-21 10:00 46.72143 15.57446 37064 ft 482 kts 148°
2026-04-21 10:01 46.66626 15.62873 37070 ft 482 kts 148°
2026-04-21 10:01 46.61058 15.68336 37073 ft 483 kts 148°
2026-04-21 10:02 46.52689 15.76516 37078 ft 483 kts 149°
2026-04-21 10:03 46.47105 15.81960 37077 ft 483 kts 149°
2026-04-21 10:03 46.41523 15.87385 37071 ft 483 kts 149°
2026-04-21 10:04 46.35929 15.92804 37066 ft 484 kts 149°
2026-04-21 10:04 46.30321 15.98198 37061 ft 483 kts 150°
2026-04-21 10:05 46.24542 16.03109 37057 ft 481 kts 155°
2026-04-21 10:05 46.18626 16.07646 37053 ft 481 kts 156°
2026-04-21 10:06 46.12713 16.12210 37053 ft 482 kts 155°
2026-04-21 10:06 46.06847 16.16890 37052 ft 482 kts 154°
2026-04-21 10:07 46.00989 16.21599 37064 ft 482 kts 155°
2026-04-21 10:07 45.95126 16.26272 37062 ft 482 kts 155°
2026-04-21 10:08 45.89251 16.30916 37064 ft 482 kts 155°
2026-04-21 10:08 45.83371 16.35534 37063 ft 482 kts 155°
2026-04-21 10:09 45.77493 16.40155 37067 ft 482 kts 155°
2026-04-21 10:09 45.71649 16.44740 37058 ft 482 kts 155°
2026-04-21 10:10 45.65761 16.49347 37056 ft 482 kts 155°
2026-04-21 10:10 45.59875 16.53942 37057 ft 482 kts 155°
2026-04-21 10:11 45.54000 16.58519 37055 ft 482 kts 155°
2026-04-21 10:11 45.48114 16.63091 37051 ft 481 kts 155°
2026-04-21 10:12 45.42225 16.67649 37063 ft 481 kts 155°
2026-04-21 10:12 45.36339 16.72193 37049 ft 481 kts 155°
2026-04-21 10:13 45.30450 16.76737 37051 ft 482 kts 155°
2026-04-21 10:13 45.24558 16.81270 37048 ft 481 kts 155°
2026-04-21 10:14 45.18711 16.85759 37048 ft 481 kts 155°
2026-04-21 10:14 45.12818 16.90271 37054 ft 481 kts 155°
2026-04-21 10:15 45.06926 16.94770 37054 ft 481 kts 155°
2026-04-21 10:15 45.01036 16.99258 37051 ft 481 kts 155°
2026-04-21 10:16 44.95145 17.03732 37047 ft 481 kts 155°
2026-04-21 10:16 44.89255 17.08192 37054 ft 480 kts 155°
2026-04-21 10:17 44.83369 17.12649 37053 ft 480 kts 155°
2026-04-21 10:17 44.77478 17.17096 37051 ft 480 kts 155°
2026-04-21 10:18 44.71594 17.21532 37049 ft 480 kts 155°
2026-04-21 10:18 44.65708 17.25962 37050 ft 480 kts 155°
2026-04-21 10:19 44.59818 17.30368 37047 ft 479 kts 155°
2026-04-21 10:19 44.53926 17.34767 37040 ft 479 kts 155°
2026-04-21 10:20 44.48038 17.39164 37039 ft 480 kts 155°
2026-04-21 10:20 44.42144 17.43549 37039 ft 480 kts 156°
2026-04-21 10:21 44.36253 17.47929 37037 ft 479 kts 156°
2026-04-21 10:21 44.30354 17.52302 37031 ft 479 kts 156°
2026-04-21 10:22 44.24503 17.56625 37028 ft 479 kts 156°
2026-04-21 10:22 44.18573 17.61005 37026 ft 479 kts 156°
2026-04-21 10:23 44.12724 17.65310 37026 ft 478 kts 156°
2026-04-21 10:23 44.06758 17.69344 37026 ft 476 kts 160°
2026-04-21 10:24 44.00670 17.72940 37019 ft 474 kts 162°
2026-04-21 10:24 43.94578 17.76464 37013 ft 474 kts 161°
2026-04-21 10:25 43.88520 17.80096 37012 ft 474 kts 160°
2026-04-21 10:25 43.82477 17.83786 37005 ft 474 kts 160°
2026-04-21 10:26 43.76445 17.87465 37005 ft 474 kts 160°
2026-04-21 10:26 43.70405 17.91102 36998 ft 473 kts 160°
2026-04-21 10:27 43.64362 17.94719 36994 ft 473 kts 161°
2026-04-21 10:27 43.58323 17.98324 36979 ft 473 kts 161°
2026-04-21 10:28 43.52291 18.01929 36971 ft 472 kts 161°
2026-04-21 10:28 43.46258 18.05532 36966 ft 473 kts 161°
2026-04-21 10:29 43.40227 18.09127 36963 ft 472 kts 161°
2026-04-21 10:29 43.34194 18.12714 36959 ft 472 kts 161°
2026-04-21 10:30 43.28159 18.16287 36955 ft 472 kts 161°
2026-04-21 10:30 43.22130 18.19841 36946 ft 472 kts 161°
2026-04-21 10:31 43.16094 18.23407 36939 ft 472 kts 161°
2026-04-21 10:31 43.10056 18.26970 36930 ft 472 kts 161°
2026-04-21 10:32 43.04012 18.30515 36926 ft 472 kts 161°
2026-04-21 10:32 42.97967 18.34051 36919 ft 472 kts 161°
2026-04-21 10:33 42.91969 18.37564 36915 ft 472 kts 161°
2026-04-21 10:33 42.85928 18.41094 36918 ft 473 kts 161°
2026-04-21 10:34 42.79883 18.44613 36919 ft 473 kts 161°
2026-04-21 10:34 42.73833 18.48135 36938 ft 473 kts 161°
2026-04-21 10:35 42.67780 18.51656 36943 ft 473 kts 161°
2026-04-21 10:35 42.61728 18.55159 36954 ft 472 kts 161°
2026-04-21 10:36 42.55676 18.58646 36935 ft 472 kts 161°
2026-04-21 10:36 42.49628 18.62128 36933 ft 472 kts 161°
2026-04-21 10:37 42.43582 18.65604 36931 ft 472 kts 161°
2026-04-21 10:37 42.37579 18.69052 36923 ft 472 kts 161°
2026-04-21 10:38 42.31531 18.72479 36935 ft 471 kts 162°
2026-04-21 10:38 42.25362 18.75413 36936 ft 469 kts 166°
2026-04-21 10:39 42.19129 18.78001 36938 ft 468 kts 167°
2026-04-21 10:39 42.12910 18.80625 36930 ft 469 kts 166°
2026-04-21 10:40 42.06700 18.83356 36936 ft 470 kts 166°
2026-04-21 10:40 42.01543 18.85667 36946 ft 470 kts 166°
2026-04-21 10:41 41.95335 18.88423 36942 ft 469 kts 166°
2026-04-21 10:41 41.89124 18.91144 36947 ft 469 kts 166°
2026-04-21 10:42 41.82918 18.93860 36951 ft 469 kts 166°
2026-04-21 10:42 41.76711 18.96570 36952 ft 469 kts 166°
2026-04-21 10:43 41.70505 18.99276 36954 ft 469 kts 166°
2026-04-21 10:43 41.64300 19.01977 36951 ft 468 kts 166°
2026-04-21 10:44 41.58105 19.04669 36950 ft 468 kts 166°
2026-04-21 10:44 41.51906 19.07357 36947 ft 468 kts 166°
2026-04-21 10:45 41.45704 19.10046 36949 ft 469 kts 166°
2026-04-21 10:45 41.39544 19.12932 36952 ft 470 kts 163°
2026-04-21 10:46 41.33422 19.16008 36952 ft 470 kts 163°
2026-04-21 10:46 41.27298 19.19065 36951 ft 470 kts 163°
2026-04-21 10:47 41.21150 19.22070 36953 ft 471 kts 163°
2026-04-21 10:47 41.14994 19.25036 36950 ft 471 kts 164°
2026-04-21 10:48 41.08839 19.28011 36950 ft 471 kts 163°
2026-04-21 10:48 41.02674 19.30987 36952 ft 471 kts 163°
2026-04-21 10:49 40.96509 19.33961 36955 ft 471 kts 163°
2026-04-21 10:49 40.90380 19.36915 36954 ft 472 kts 163°
2026-04-21 10:50 40.84213 19.39887 36956 ft 472 kts 163°
2026-04-21 10:50 40.78028 19.42842 36954 ft 472 kts 165°
2026-04-21 10:50 40.74855 19.43831 36795 ft 467 kts 174°
2026-04-21 10:51 40.71621 19.44586 35727 ft 479 kts 174°
2026-04-21 10:51 40.68305 19.45328 34782 ft 487 kts 174°
2026-04-21 10:51 40.64989 19.46064 34482 ft 478 kts 174°
2026-04-21 10:51 40.61700 19.46796 34300 ft 467 kts 174°
2026-04-21 10:52 40.58558 19.47499 33973 ft 461 kts 174°
2026-04-21 10:52 40.55408 19.48205 33522 ft 457 kts 174°
2026-04-21 10:52 40.52286 19.48902 33055 ft 453 kts 174°
2026-04-21 10:52 40.49190 19.49590 32581 ft 449 kts 174°
2026-04-21 10:53 40.46127 19.50268 32102 ft 446 kts 174°
2026-04-21 10:53 40.43054 19.50945 31105 ft 453 kts 174°
2026-04-21 10:53 40.39878 19.51632 29495 ft 473 kts 174°
2026-04-21 10:53 40.36583 19.52343 28084 ft 484 kts 174°
2026-04-21 10:54 40.33267 19.53068 27415 ft 479 kts 174°
2026-04-21 10:54 40.30031 19.53785 27142 ft 464 kts 174°
2026-04-21 10:54 40.26896 19.54485 26942 ft 450 kts 174°
2026-04-21 10:54 40.23878 19.55158 26967 ft 431 kts 174°
2026-04-21 10:55 40.20941 19.55808 26420 ft 428 kts 174°
2026-04-21 10:55 40.17983 19.56451 25524 ft 433 kts 174°
2026-04-21 10:55 40.14985 19.57097 24654 ft 438 kts 174°
2026-04-21 10:55 40.11971 19.57748 23797 ft 441 kts 174°
2026-04-21 10:56 40.08939 19.58402 22851 ft 442 kts 174°
2026-04-21 10:56 40.05901 19.59059 21879 ft 443 kts 173°
2026-04-21 10:56 40.02864 19.59719 20942 ft 442 kts 173°
2026-04-21 10:56 39.99834 19.60378 20038 ft 441 kts 173°
2026-04-21 10:57 39.98811 19.60600 19737 ft 441 kts 173°
2026-04-21 10:57 39.98726 19.60619 19711 ft 441 kts 173°
2026-04-21 10:57 39.95685 19.61294 18788 ft 440 kts 173°
2026-04-21 10:57 39.92671 19.61959 17895 ft 438 kts 173°
2026-04-21 10:58 39.89678 19.62609 16940 ft 435 kts 173°
2026-04-21 10:58 39.86697 19.63250 16007 ft 432 kts 173°
2026-04-21 10:58 39.83740 19.63885 15100 ft 430 kts 173°
2026-04-21 10:58 39.80797 19.64518 14230 ft 427 kts 172°
2026-04-21 10:59 39.77877 19.65146 13317 ft 424 kts 172°
2026-04-21 10:59 39.74978 19.65774 12631 ft 417 kts 172°
2026-04-21 10:59 39.72181 19.66382 12087 ft 404 kts 172°
2026-04-21 10:59 39.69433 19.66975 11437 ft 395 kts 172°
2026-04-21 11:00 39.66740 19.67557 10842 ft 388 kts 172°
2026-04-21 11:00 39.64121 19.68122 10463 ft 373 kts 172°
2026-04-21 11:00 39.61658 19.68653 10326 ft 344 kts 172°
2026-04-21 11:00 39.59379 19.69146 10145 ft 321 kts 172°
2026-04-21 11:01 39.57244 19.69604 10002 ft 302 kts 173°
2026-04-21 11:01 39.55203 19.70036 9586 ft 294 kts 173°
2026-04-21 11:01 39.53198 19.70459 9087 ft 290 kts 173°
2026-04-21 11:02 39.49277 19.71290 8104 ft 282 kts 172°
2026-04-21 11:02 39.47354 19.71702 7630 ft 278 kts 172°
2026-04-21 11:02 39.45462 19.72108 7163 ft 275 kts 172°
2026-04-21 11:02 39.43567 19.72513 6678 ft 279 kts 173°
2026-04-21 11:03 39.41680 19.72451 6477 ft 267 kts 199°
2026-04-21 11:03 39.40121 19.71282 6201 ft 257 kts 228°
2026-04-21 11:03 39.39239 19.69330 6019 ft 252 kts 256°
2026-04-21 11:03 39.39171 19.67097 5960 ft 250 kts 282°
2026-04-21 11:04 39.39885 19.65111 5690 ft 249 kts 310°
2026-04-21 11:04 39.41271 19.63770 5634 ft 254 kts 336°
2026-04-21 11:04 39.43016 19.63410 5584 ft 259 kts
2026-04-21 11:04 39.44711 19.64213 5522 ft 265 kts 33°
2026-04-21 11:05 39.46148 19.65720 5462 ft 267 kts 39°
2026-04-21 11:05 39.47566 19.67266 5404 ft 267 kts 39°
2026-04-21 11:05 39.48994 19.68800 5341 ft 266 kts 35°
2026-04-21 11:05 39.50625 19.69898 5282 ft 263 kts 15°
2026-04-21 11:06 39.52412 19.70270 5224 ft 259 kts 357°
2026-04-21 11:06 39.54191 19.69975 5168 ft 257 kts 347°
2026-04-21 11:06 39.55955 19.69556 5114 ft 258 kts 347°
2026-04-21 11:06 39.57719 19.69147 5048 ft 258 kts 347°
2026-04-21 11:07 39.59485 19.68740 4989 ft 257 kts 348°
2026-04-21 11:07 39.61225 19.68341 4922 ft 257 kts 347°
2026-04-21 11:07 39.62988 19.67936 4853 ft 257 kts 347°
2026-04-21 11:07 39.64751 19.67528 4790 ft 257 kts 347°
2026-04-21 11:08 39.66512 19.67119 4716 ft 257 kts 347°
2026-04-21 11:08 39.68275 19.66741 4642 ft 258 kts 353°
2026-04-21 11:08 39.70073 19.66843 4581 ft 261 kts
2026-04-21 11:08 39.71803 19.67573 4496 ft 263 kts 24°
2026-04-21 11:09 39.73410 19.68716 4403 ft 263 kts 27°
2026-04-21 11:09 39.75011 19.69866 4307 ft 263 kts 28°
2026-04-21 11:09 39.76622 19.71021 4223 ft 263 kts 27°
2026-04-21 11:09 39.78226 19.72167 4121 ft 263 kts 28°
2026-04-21 11:10 39.79827 19.73311 4042 ft 263 kts 27°
2026-04-21 11:10 39.81429 19.74454 3947 ft 262 kts 28°
2026-04-21 11:10 39.83021 19.75611 3870 ft 262 kts 32°
2026-04-21 11:10 39.84287 19.77288 3783 ft 262 kts 60°
2026-04-21 11:11 39.84827 19.79521 3693 ft 260 kts 88°
2026-04-21 11:11 39.84548 19.81765 3599 ft 246 kts 115°
2026-04-21 11:11 39.83760 19.83677 3517 ft 234 kts 121°
2026-04-21 11:11 39.82986 19.85477 3439 ft 223 kts 121°
2026-04-21 11:12 39.82263 19.87173 3359 ft 210 kts 121°
2026-04-21 11:12 39.81565 19.88816 3267 ft 201 kts 121°
2026-04-21 11:12 39.80738 19.90201 3203 ft 188 kts 143°
2026-04-21 11:12 39.79625 19.90987 3250 ft 185 kts 164°
2026-04-21 11:13 39.78359 19.91232 3220 ft 184 kts 176°
2026-04-21 11:13 39.77086 19.91388 3207 ft 185 kts 175°
2026-04-21 11:13 39.75807 19.91550 3210 ft 186 kts 176°
2026-04-21 11:13 39.74513 19.91620 3180 ft 189 kts 185°
2026-04-21 11:14 39.73176 19.91506 2813 ft 191 kts 185°
2026-04-21 11:14 39.71949 19.91083 2588 ft 176 kts 202°
2026-04-21 11:14 39.70835 19.90516 2236 ft 168 kts 201°
2026-04-21 11:14 39.69794 19.89989 2008 ft 153 kts 200°
2026-04-21 11:15 39.68840 19.89587 1810 ft 136 kts 190°
2026-04-21 11:15 39.67912 19.89506 1582 ft 132 kts 179°
2026-04-21 11:15 39.67001 19.89607 1393 ft 131 kts 174°
2026-04-21 11:15 39.66108 19.89777 1258 ft 128 kts 173°
2026-04-21 11:16 39.65215 19.89947 1022 ft 130 kts 172°
2026-04-21 11:16 39.64329 19.90138 818 ft 127 kts 170°
2026-04-21 11:16 39.63475 19.90345 674 ft 125 kts 168°
2026-04-21 11:16 39.62601 19.90572 558 ft 132 kts 167°
2026-04-21 11:17 39.61710 19.90813 306 ft 131 kts 165°
2026-04-21 11:17 39.60826 19.91050 47 ft 128 kts 166°
2026-04-21 11:17 39.60060 19.91251 21 ft 92 kts 169°
2026-04-21 11:17 39.59603 19.91368 20 ft 40 kts 169°
2026-04-21 11:18 39.59366 19.91429 19 ft 30 kts 169°
2026-04-21 11:18 39.59204 19.91481 18 ft 15 kts 140°
2026-04-21 11:18 39.59163 19.91467 17 ft 11 kts 313°
2026-04-21 11:18 39.59259 19.91450 18 ft 20 kts 355°
2026-04-21 11:19 39.59460 19.91402 18 ft 38 kts 349°
2026-04-21 11:19 39.59763 19.91327 21 ft 49 kts 348°
2026-04-21 11:19 39.60117 19.91234 21 ft 55 kts 348°
2026-04-21 11:19 39.60431 19.91156 19 ft 31 kts 349°
2026-04-21 11:20 39.60569 19.91187 19 ft 16 kts 34°
2026-04-21 11:20 39.60587 19.91297 20 ft 15 kts 135°
2026-04-21 11:20 39.60550 19.91376 19 ft 9 kts 78°
2026-04-21 11:20 39.60553 19.91394 20 ft 0 kts 77°